VINASAT-2

Last updated on Tue Sep 22 2026 00:03:12 GMT+0000 (Coordinated Universal Time)

1 38332U 12023B 26264.37267682 -.00000332 00000+0 00000+0 0 9995 2 38332 0.0323 310.1337 0002093 218.3080 97.8425 1.00272717 47624
UTC large
Height (km)
Speed (km/s)
/
Latitude / Longitude
Inclination (degrees)
Orbital Period (minutes)
Azimuth
Elevation
Range (km)
Doppler Factor

Next 0 passes for location: London (51.5072 / 0.1276)

No passes found over London.
VINASAT-2